Weather History for KHFJ - October, 2013

Change the Weather History Date:

Tuesday, October 29, 2013

  Actual Average (KJLN) Record (KJLN)
Temperature  
Mean Temperature 60 °F 56 °F  
Max Temperature 68 °F 67 °F 87 °F (1950)
Min Temperature 53 °F 45 °F 25 °F (1980)
Degree Days  
Heating Degree Days 4 10  
Month to date heating degree days 190  
Since 1 July heating degree days 232  
Cooling Degree Days 0 1  
Month to date cooling degree days 47  
Year to date cooling degree days 1689  
Growing Degree Days 10 (Base 50)    
Moisture  
Dew Point 59 °F    
Average Humidity 95    
Maximum Humidity 100    
Minimum Humidity 83    
Precipitation  
Precipitation 0.72 in 0.13 in 2.14 in (2013)
Month to date precipitation 3.77  
Year to date precipitation 39.69  
Sea Level Pressure  
Sea Level Pressure 30.05 in    
Wind  
Wind Speed 10 mph (SSE)    
Max Wind Speed 18 mph    
Max Gust Speed 23 mph    
Visibility 7 miles    
Events Rain , Thunderstorm    
T = Trace of Precipitation, MM = Missing Value Source: NWS Daily Summary

Daily Weather History Graph

Daily Weather History Graph

Search for Another Location

Airport or City:

Trip Planner

Search our weather history database for the weather conditions in past years. The results will help you decide how hot, cold, wet, or windy it might be!

Date:

Astronomy

Oct. 29, 2013 Rise Set
Actual Time 7:37 AM CDT 6:21 PM CDT
Civil Twilight 7:10 AM CDT 6:48 PM CDT
Nautical Twilight 6:39 AM CDT 7:18 PM CDT
Astronomical Twilight 6:09 AM CDT 7:49 PM CDT
Moon 2:35 AM CDT (10/29) 3:29 PM CDT (10/29)
Length of Visible Light 11h 37m
Length of Day
10h 44m
Waning Crescent, 25% of the Moon is Illuminated
Oct 29
Waning Crescent
Nov 3
New
Nov 9
First Quarter
Nov 17
Full
Nov 25
Last Quarter

Hourly Weather History & Observations

Time (CDT) Temp. Dew Point Humidity Pressure Visibility Wind Dir Wind Speed Gust Speed Precip Events Conditions
12:15 AM 53.6 °F 51.8 °F 94% 30.14 in 10.0 mi SE 8.1 mph - N/A   Overcast
12:35 AM 53.6 °F 51.8 °F 94% 30.13 in 10.0 mi SE 9.2 mph - N/A   Overcast
12:55 AM 53.6 °F 51.8 °F 94% 30.12 in 10.0 mi SE 11.5 mph - N/A   Mostly Cloudy
1:15 AM 55.4 °F 51.8 °F 88% 30.12 in 10.0 mi SE 10.4 mph - N/A   Drizzle
1:35 AM 53.6 °F 51.8 °F 94% 30.12 in 10.0 mi SE 10.4 mph - N/A   Overcast
1:55 AM 53.6 °F 53.6 °F 100% 30.12 in 7.0 mi ESE 10.4 mph - 0.01 in Rain Rain
2:15 AM 53.6 °F 53.6 °F 100% 30.14 in 5.0 mi SE 6.9 mph - 0.04 in Rain Rain
2:35 AM 53.6 °F 53.6 °F 100% 30.13 in 4.0 mi SE 5.8 mph - 0.10 in Rain , Thunderstorm Thunderstorms and Rain
2:55 AM 53.6 °F 53.6 °F 100% 30.11 in 4.0 mi East 8.1 mph - 0.24 in Rain , Thunderstorm Thunderstorms and Rain
3:15 AM 53.6 °F 53.6 °F 100% 30.09 in 5.0 mi East 11.5 mph - 0.06 in Rain Light Rain
3:35 AM 53.6 °F 53.6 °F 100% 30.10 in 7.0 mi ESE 9.2 mph - 0.06 in   Overcast
3:55 AM 53.6 °F 53.6 °F 100% 30.07 in 7.0 mi ESE 12.7 mph 17.3 mph 0.06 in   Overcast
4:15 AM 53.6 °F 53.6 °F 100% 30.06 in 7.0 mi East 12.7 mph 18.4 mph N/A   Overcast
4:35 AM 53.6 °F 53.6 °F 100% 30.04 in 7.0 mi ESE 15.0 mph 20.7 mph N/A   Overcast
4:55 AM 53.6 °F 53.6 °F 100% 30.04 in 7.0 mi ESE 16.1 mph 21.9 mph N/A Rain , Thunderstorm Light Thunderstorms and Rain
5:15 AM 53.6 °F 53.6 °F 100% 30.04 in 7.0 mi SE 13.8 mph 21.9 mph N/A Rain , Thunderstorm Rain
5:35 AM 53.6 °F 53.6 °F 100% 30.03 in 5.0 mi ESE 15.0 mph 21.9 mph 0.03 in Rain , Thunderstorm Rain
5:55 AM 55.4 °F 55.4 °F 100% 30.04 in 3.0 mi SE 15.0 mph 21.9 mph 0.13 in Rain , Thunderstorm Rain
6:15 AM 55.4 °F 55.4 °F 100% 30.04 in 5.0 mi SE 13.8 mph 18.4 mph 0.04 in Rain Rain
6:35 AM 55.4 °F 55.4 °F 100% 30.04 in 5.0 mi SE 9.2 mph 16.1 mph 0.08 in Rain Light Rain
6:55 AM 55.4 °F 55.4 °F 100% 30.05 in 5.0 mi SE 9.2 mph - 0.08 in   Overcast
7:15 AM 55.4 °F 55.4 °F 100% 30.06 in 5.0 mi SE 9.2 mph - N/A   Drizzle
7:35 AM 55.4 °F 55.4 °F 100% 30.06 in 4.0 mi SE 5.8 mph - 0.06 in Rain Heavy Rain
7:55 AM 55.4 °F 55.4 °F 100% 30.06 in 5.0 mi SE 6.9 mph - 0.08 in   Drizzle
8:15 AM 57.2 °F 55.4 °F 94% 30.08 in 7.0 mi Calm Calm - N/A   Overcast
8:35 AM 55.4 °F 55.4 °F 100% 30.08 in 5.0 mi SE 6.9 mph - N/A   Overcast
8:55 AM 57.2 °F 55.4 °F 94% 30.08 in 4.0 mi SE 6.9 mph - N/A   Overcast
9:15 AM 57.2 °F 55.4 °F 94% 30.08 in 4.0 mi SSE 6.9 mph - N/A   Overcast
9:35 AM 59.0 °F 57.2 °F 94% 30.08 in 4.0 mi SSE 10.4 mph - N/A   Overcast
9:55 AM 59.0 °F 59.0 °F 100% 30.07 in 5.0 mi SSE 11.5 mph 16.1 mph N/A   Overcast
10:15 AM 60.8 °F 60.8 °F 100% 30.07 in 7.0 mi South 15.0 mph 18.4 mph N/A   Overcast
10:35 AM 62.6 °F 60.8 °F 94% 30.07 in 10.0 mi South 18.4 mph 23.0 mph N/A   Overcast
10:55 AM 62.6 °F 60.8 °F 94% 30.09 in 10.0 mi West 5.8 mph 12.7 mph N/A   Overcast
11:15 AM 60.8 °F 60.8 °F 100% 30.09 in 4.0 mi Calm Calm - 0.05 in Rain Heavy Rain
11:35 AM 62.6 °F 60.8 °F 94% 30.08 in 5.0 mi SSE 8.1 mph - 0.10 in Rain Light Rain
11:55 AM 62.6 °F 60.8 °F 94% 30.07 in 7.0 mi South 9.2 mph - 0.10 in   Overcast
12:15 PM 62.6 °F 60.8 °F 94% 30.06 in 7.0 mi South 9.2 mph - N/A   Overcast
12:35 PM 64.4 °F 60.8 °F 88% 30.05 in 10.0 mi South 10.4 mph - N/A   Overcast
12:55 PM 64.4 °F 60.8 °F 88% 30.04 in 10.0 mi South 10.4 mph 17.3 mph N/A   Overcast
1:15 PM 64.4 °F 62.6 °F 94% 30.03 in 10.0 mi South 10.4 mph 17.3 mph N/A   Overcast
1:35 PM 64.4 °F 62.6 °F 94% 30.03 in 10.0 mi SSW 11.5 mph - N/A   Overcast
1:55 PM 64.4 °F 62.6 °F 94% 30.01 in 10.0 mi South 11.5 mph - N/A   Overcast
2:15 PM 66.2 °F 62.6 °F 88% 30.00 in 10.0 mi South 13.8 mph - N/A   Overcast
2:35 PM 66.2 °F 62.6 °F 88% 30.00 in 10.0 mi SSW 18.4 mph - N/A   Overcast
2:55 PM 66.2 °F 62.6 °F 88% 29.99 in 10.0 mi South 12.7 mph 20.7 mph N/A   Overcast
3:15 PM 66.2 °F 62.6 °F 88% 30.00 in 10.0 mi SSW 13.8 mph 17.3 mph N/A   Overcast
3:35 PM 66.2 °F 62.6 °F 88% 29.99 in 10.0 mi South 9.2 mph - N/A   Overcast
3:55 PM 68.0 °F 62.6 °F 83% 30.00 in 10.0 mi South 9.2 mph - N/A   Overcast
4:15 PM 66.2 °F 62.6 °F 88% 30.00 in 10.0 mi South 9.2 mph - N/A   Overcast
4:35 PM 66.2 °F 62.6 °F 88% 30.00 in 7.0 mi South 9.2 mph - N/A Rain Light Rain
4:55 PM 64.4 °F 62.6 °F 94% 30.01 in 3.0 mi SSW 5.8 mph - N/A   Drizzle
5:15 PM 64.4 °F 64.4 °F 100% 30.01 in 2.5 mi South 4.6 mph - 0.01 in   Heavy Drizzle
5:35 PM 64.4 °F 64.4 °F 100% 30.01 in 2.5 mi South 6.9 mph - 0.01 in   Drizzle
5:55 PM 64.4 °F 64.4 °F 100% 30.01 in 4.0 mi South 9.2 mph - 0.01 in   Drizzle
6:15 PM 64.4 °F 64.4 °F 100% 30.02 in 4.0 mi South 6.9 mph - 0.01 in   Drizzle
6:35 PM 64.4 °F 64.4 °F 100% 30.02 in 4.0 mi South 9.2 mph - 0.01 in Rain Light Rain
6:55 PM 64.4 °F 64.4 °F 100% 30.03 in 5.0 mi South 5.8 mph - 0.01 in Rain Light Rain
7:15 PM 64.4 °F 62.6 °F 94% 30.02 in 5.0 mi South 10.4 mph - N/A   Overcast
7:35 PM 64.4 °F 62.6 °F 94% 30.03 in 7.0 mi SSE 9.2 mph - N/A   Overcast
7:55 PM 64.4 °F 62.6 °F 94% 30.03 in 7.0 mi SSE 8.1 mph - N/A   Overcast
8:15 PM 64.4 °F 62.6 °F 94% 30.03 in 7.0 mi SSE 6.9 mph - N/A   Overcast
8:35 PM 64.4 °F 62.6 °F 94% 30.03 in 10.0 mi South 8.1 mph - N/A   Overcast
8:55 PM 64.4 °F 62.6 °F 94% 30.03 in 10.0 mi South 9.2 mph - N/A   Overcast
9:15 PM 64.4 °F 62.6 °F 94% 30.03 in 10.0 mi South 8.1 mph - N/A   Overcast
9:35 PM 64.4 °F 62.6 °F 94% 30.03 in 10.0 mi South 5.8 mph - N/A   Overcast
9:55 PM 64.4 °F 62.6 °F 94% 30.03 in 10.0 mi South 8.1 mph - N/A   Mostly Cloudy
10:15 PM 64.4 °F 62.6 °F 94% 30.04 in 10.0 mi South 8.1 mph - N/A   Mostly Cloudy
10:35 PM 64.4 °F 62.6 °F 94% 30.04 in 10.0 mi South 5.8 mph - N/A   Mostly Cloudy
10:55 PM 64.4 °F 62.6 °F 94% 30.04 in 10.0 mi South 5.8 mph - N/A   Overcast
11:15 PM 64.4 °F 62.6 °F 94% 30.05 in 7.0 mi South 4.6 mph - N/A   Overcast
11:35 PM 64.4 °F 62.6 °F 94% 30.05 in 7.0 mi South 3.5 mph - N/A   Overcast
11:55 PM 64.4 °F 62.6 °F 94% 30.05 in 7.0 mi South 4.6 mph - N/A   Overcast